Preview of NWS' New Version of Forecast
This preview is not operational and should not be used for support decisions.

Regional Weather Roundup (RWR)

Issued by National Weather Service (NWS)

                            
000
ASUS46 KSEW 221410
RWRWA 

WASHINGTON REGIONAL WEATHER ROUNDUP
NATIONAL WEATHER SERVICE SEATTLE WA
700 AM PDT MON JUL 22 2019

NOTE:"FAIR" INDICATES FEW OR NO CLOUDS BELOW 12,000 FEET WITH NO 
SIGNIFICANT WEATHER AND/OR OBSTRUCTIONS TO VISIBILITY.

WAZ507-509-555>559-221500-
SEATTLE, TACOMA, EVERETT, AND VICINITY
  
CITY           SKY/WX    TMP DP  RH WIND       PRES   REMARKS
EVERETT        SUNNY     60  45  57 SW3       30.02R                  
BOEING FIELD   SUNNY     61  51  70 VRB6      30.02R                  
RENTON         SUNNY     60  53  77 VRB3      30.01R                  
SEATAC AIRPORT MOSUNNY   60  52  74 SW6       30.02R                  
JBLM-MCCHORD   SUNNY     58  54  89 S3        30.02R                  
PUYALLUP       FAIR      55  52  88 CALM      30.03R                  
BREMERTON      CLOUDY    55  53  93 SW5       30.02R                  
JBLM-FT LEWIS  SUNNY     58  56  94 SE3       30.02R                  
TACOMA NARROWS SUNNY     57  52  83 S8        30.03R                  
$$
 
WAZ001-503-506-510-514-515-221500-
NORTH INTERIOR
  
CITY           SKY/WX    TMP DP  RH WIND       PRES   REMARKS
BELLINGHAM     MOSUNNY   62  50  64 S8        29.97R                  
FRIDAY HARBOR  SUNNY     55  52  89 E3        29.98R                  
EASTSOUND      SUNNY     59  54  82 S9        29.95R                  
PORT ANGELES   SUNNY     58  48  69 W8        30.00R                  
EDIZ HOOK      FAIR      56  50  80 W12       30.00R                  
PORT TOWNSEND  FAIR      52  50  93 CALM      30.00R                  
NAS WHIDBEY    SUNNY     60  53  77 SW12      30.04R                  
ARLINGTON        N/A     55  50  83 S3        30.02R                  
BURLINGTON     SUNNY     61  55  82 VRB3      30.01R                  
$$
 
WAZ020-022-039-040-504-511-512-221500-
SOUTHWEST INTERIOR
  
CITY           SKY/WX    TMP DP  RH WIND       PRES   REMARKS
SHELTON        CLOUDY    58  53  84 SW10G18   30.00R                  
OLYMPIA        SUNNY     57  53  86 SW5       30.02R                  
CHEHALIS       FAIR      55  52  88 S3        30.04S                  
KELSO          MOSUNNY   59  55  87 CALM      30.05S                  
VANCOUVER      SUNNY     61  51  70 CALM      30.04R                  
SCAPPOOSE, OR  SUNNY     57  51  80 CALM      30.03R                  
PORTLAND, OR   MOSUNNY   62  52  69 N3        30.04R                  
$$
 
WAZ021-516-517-221500-
WASHINGTON COAST
  
CITY           SKY/WX    TMP DP  RH WIND       PRES   REMARKS
FORKS          PTSUNNY   53  50  89 CALM      30.03R                  
HOQUIAM        SUNNY     59  59 100 CALM      30.04R                  
ASTORIA, OR    PTSUNNY   54  53  97 E3        30.05R                  
$$
 
WAZ019-023-024-040-567>569-221500-
CASCADE MOUNTAINS AND COLUMBIA GORGE
  
CITY           SKY/WX    TMP DP  RH WIND       PRES   REMARKS
STAMPEDE PASS  MOSUNNY   58  44  60 SW6       30.08R                  
TROUTDALE, OR  SUNNY     61  53  75 CALM      30.04R                  
HOOD RIVER, OR PTSUNNY   63  54  72 W3        29.97R                  
THE DALLES, OR PTSUNNY   70  54  56 NW16G24   29.91R                  
$$

WAZ026-027-041>044-520-521-221500-
EAST SLOPES
  
CITY           SKY/WX    TMP DP  RH WIND       PRES   REMARKS
OMAK           MOSUNNY   67  40  37 N12       29.98R                  
WENATCHEE      PTSUNNY   64  46  52 SW10      29.96R                  
ELLENSBURG     MOSUNNY   60  47  61 CALM      29.97R                  
YAKIMA         MOSUNNY   60  48  64 W7        29.93R                  
SUNNYSIDE ARPT MOSUNNY   58  55  88 N5        29.90                   
YAKIMA TC      FAIR      67  40  38 CALM      29.93R                  
$$

WAZ028-034-035-221500-
COLUMBIA BASIN
  
CITY           SKY/WX    TMP DP  RH WIND       PRES   REMARKS
EPHRATA        MOSUNNY   75  38  26 N7        29.92S                  
MOSES LAKE     MOSUNNY   72  42  34 N7        29.93R                  
PASCO          CLOUDY    67  53  61 N3        29.88R                  
RICHLAND ARPT  PTSUNNY   69  50  50 MISG      29.88S                  
HERMISTON, OR  CLOUDY    66  57  72 CALM      29.89R                  
$$

WAZ036>038-221500-
NORTHEAST WASHINGTON
  
CITY           SKY/WX    TMP DP  RH WIND       PRES   REMARKS
SPOKANE GEIGER PTSUNNY   65  44  46 NE7       30.00R                  
SPOKANE FELTS  MOSUNNY   64  49  57 CALM      30.00R                  
FAIRCHILD AFB  MOSUNNY   65  43  46 NE6       30.00R                  
COEURDALENE,ID MOSUNNY   65  47  52 NE17      30.01R                  
DEER PARK      MOSUNNY   68  43  40 N12       30.00R                  
$$

WAZ029>033-221500-
SOUTHEAST WASHINGTON
  
CITY           SKY/WX    TMP DP  RH WIND       PRES   REMARKS
PULLMAN        CLOUDY    67  46  47 NE10      29.99S                  
LEWISTON, ID   PTSUNNY   70  45  40 CALM      29.92S                  
WALLA WALLA    CLOUDY    72  47  40 E10       29.90R                  
PENDLETON, OR  LGT RAIN  68  50  52 SW3       29.92R                  
$$